Location: Limerick
(52.6800°N, 8.6400°W)
Time: 04:02:22
(UTC+00:00)

ISS - All Passes

Search period start: 01 November 2014 00:00
Search period end: 11 November 2014 00:00
Orbit: 412 x 417 km, 51.6° (Epoch: 01 November)

Date Brightness Start Highest point End Pass type
(mag) Time Alt. Az. Time Alt. Az. Time Alt. Az.
01 Nov - 10:50:48 10° SW 10:53:47 31° SSE 10:56:47 10° E daylight
01 Nov - 12:26:53 10° WSW 12:30:13 71° S 12:33:33 10° E daylight
01 Nov - 14:03:31 10° W 14:06:49 62° SSW 14:10:08 10° ESE daylight
01 Nov - 15:40:25 10° W 15:43:08 23° SSW 15:45:51 10° SSE daylight
02 Nov - 10:02:03 10° SSW 10:04:44 23° SSE 10:07:25 10° E daylight
02 Nov - 11:37:45 10° WSW 11:41:02 62° SSE 11:44:21 10° E daylight
02 Nov - 13:14:19 10° W 13:17:39 71° S 13:20:58 10° ESE daylight
02 Nov - 14:51:04 10° W 14:54:05 31° SSW 14:57:05 10° SE daylight
03 Nov - 09:13:34 10° S 09:15:41 16° SE 09:17:50 10° ESE daylight
03 Nov - 10:48:37 10° WSW 10:51:51 50° SSE 10:55:06 10° E daylight
03 Nov - 12:25:05 10° W 12:28:25 76° S 12:31:45 10° E daylight
03 Nov - 14:01:46 10° W 14:04:56 42° SSW 14:08:07 10° SE daylight
03 Nov - 15:39:31 10° WSW 15:41:00 12° SW 15:42:28 10° SSW daylight
04 Nov - 08:25:45 10° SSE 08:26:40 11° SE 08:27:34 10° ESE daylight
04 Nov - 09:59:32 10° SW 10:02:39 38° SSE 10:05:47 10° E daylight
04 Nov - 11:35:49 10° W 11:39:09 75° S 11:42:29 10° E daylight
04 Nov - 13:12:28 10° W 13:15:44 54° SSW 13:19:00 10° ESE daylight
04 Nov - 14:49:35 10° W 14:51:56 18° SW 14:54:17 10° S daylight
05 Nov - 09:10:33 10° SSW 09:13:28 29° SSE 09:16:23 10° E daylight
05 Nov - 10:46:33 10° WSW 10:49:51 69° S 10:53:11 10° E daylight
05 Nov - 12:23:09 10° W 12:26:28 65° S 12:29:46 10° ESE daylight
05 Nov - 14:00:00 10° W 14:02:48 25° SSW 14:05:36 10° SSE daylight
06 Nov - 08:21:43 10° SSW 08:24:17 21° SSE 08:26:51 10° E daylight
06 Nov - 09:57:16 10° WSW 10:00:32 59° SSE 10:03:50 10° E daylight
06 Nov - 11:33:48 10° W 11:37:08 73° S 11:40:27 10° ESE daylight
06 Nov - 13:10:31 10° W 13:13:35 34° SSW 13:16:38 10° SE daylight
07 Nov - 07:33:12 10° S 07:35:06 15° SE 07:37:01 10° ESE daylight
07 Nov - 09:08:00 10° SW 09:11:13 47° SSE 09:14:26 10° E daylight
07 Nov - 10:44:25 10° W 10:47:45 76° S 10:51:05 10° E daylight
07 Nov - 12:21:05 10° W 12:24:17 45° SSW 12:27:29 10° SE daylight
07 Nov - 13:58:35 10° WSW 14:00:22 14° SW 14:02:09 10° S daylight
08 Nov - 08:18:49 10° SW 08:21:53 35° SSE 08:24:58 10° E daylight
08 Nov - 09:55:01 10° W 09:58:20 74° S 10:01:40 10° E daylight
08 Nov - 11:31:38 10° W 11:34:55 57° SSW 11:38:12 10° ESE daylight
08 Nov - 13:08:39 10° W 13:11:09 20° SW 13:13:39 10° SSE daylight
09 Nov - 07:29:43 10° SSW 07:32:33 26° SSE 07:35:23 10° E daylight
09 Nov - 09:05:36 10° WSW 09:08:54 66° S 09:12:13 10° E daylight
09 Nov - 10:42:11 10° W 10:45:30 67° S 10:48:48 10° ESE daylight
09 Nov - 12:18:58 10° W 12:21:51 27° SSW 12:24:44 10° SSE daylight
10 Nov - 06:40:49 10° SSW 06:43:14 19° SE 06:45:39 10° E visible
10 Nov - 08:16:11 10° WSW 08:19:26 55° SSE 08:22:43 10° E daylight
10 Nov - 09:52:41 10° W 09:56:00 74° S 09:59:20 10° E daylight
10 Nov - 11:29:22 10° W 11:32:29 37° SSW 11:35:35 10° SE daylight
10 Nov - 13:07:56 10° SW 13:08:26 10° SW 13:08:56 10° SSW daylight
